Location: Vista Encantada
(35.1109°N, 106.5681°W)
Time: 09:06:13
(UTC+00:00)

PSLV R/B - Pass Details

Date: 29 October 2020
Orbit: 567 x 599 km, 98.2° (Epoch: 04 December)

Event Time Altitude Azimuth Distance (km) Brightness Sun altitude
Rises 12:18:05 0° 159° (SSE) 2,820 7.8 -14.3°
Reaches altitude 10° 12:20:14 10° 156° (SSE) 1,925 7.0 -13.8°
Maximum altitude 12:24:23 64° 75° (ENE) 662 4.4 -13.0°
Drops below altitude 10° 12:28:34 10° 354° (N) 1,945 6.5 -12.1°
Sets 12:30:45 0° 352° (N) 2,852 7.3 -11.7°
